map of CCF home
CCF - Airport
Location
City:  Carcassonne, Languedoc-Roussillon, France
Name:Salvaza
ICAO:LFMK
IATA:CCF

Details
Type:Airport (Aerodrome, Airfield)
Use:Public/Civil
Latitude:4312'57"N (43.215817)
Longitude:218'31"E (2.308544)
Elevation:433 ft (132 m)
Variation:0.95E (WMM2015 magnetic declination)
0.12 annual change
Runways:2
Longest:6726 × 148 ft (2050 × 45 m)

Time
Time Zone:UTC+1 (DST+2)
Local Time:

Weather
METAR:LFMK 101330Z AUTO 28011KT 9999 BKN054 11/06 Q1030 NOSIG
TAF:LFMK 100800Z 1009/1109 28012KT 9999 BKN030
TEMPO 1009/1014 28015G25KT BKN010
TEMPO 1102/1109 VRB02KT 1200 BR

Related Locations
Nearby:
Farthest:CHT: 12362 mi / 19895 km
Waitangi [Tuuta], CIT, NZ

Find:

   beyond  
but within

Other Information
Maps:
NOTAMs:
Links:
Sources:

  
  • flag of France
  • flag of Languedoc-Roussillon
  

Sectional Chart

Flight Planning
at skyvector.com

Satellite Image

Google Maps Satellite view

 

Copyright © 2004-2018 Karl L. Swartz. All rights reserved.
The Great Circle Mapper name and logo are trademarks of the Great Circle Mapper.
All other trademarks mentioned herein belong to their respective owners.
Please see credits for attibutions and further copyright information.

  Follow gcmap on Facebook Follow gcmap on Twitter Follow gcmap on Google+ GCmap on LinkedIn

hCard Microformat

Geo Microformat